Weather History for Sparta, WI

Change the Weather History Date:

Monday, August 5, 2013

  Actual Average Record
Temperature  
Mean Temperature 60 °F -  
Max Temperature 71 °F 81 °F 93 °F (1959)
Min Temperature 49 °F 56 °F 40 °F (1957)
Degree Days  
Heating Degree Days 5    
Growing Degree Days 10 (Base 50)    
Moisture  
Dew Point 58 °F    
Average Humidity 89    
Maximum Humidity 100    
Minimum Humidity 68    
Precipitation  
Precipitation 0.02 in - - ()
Sea Level Pressure  
Sea Level Pressure 29.95 in    
Wind  
Wind Speed 2 mph (South)    
Max Wind Speed 10 mph    
Max Gust Speed 18 mph    
Visibility 9 miles    
Events Rain    
Averages and records for this station are not official NWS values.
T = Trace of Precipitation, MM = Missing Value Source: NWS Daily Summary

Daily Weather History Graph

Daily Weather History Graph

Search for Another Location

Airport:

Trip Planner

Search our weather history database for the weather conditions in past years. The results will help you decide how hot, cold, wet, or windy it might be!

Date:

Astronomy

Aug. 05, 2013 Rise Set
Actual Time 5:55 AM CDT 8:21 PM CDT
Civil Twilight 5:23 AM CDT 8:53 PM CDT
Nautical Twilight 4:43 AM CDT 9:33 PM CDT
Astronomical Twilight 3:57 AM CDT 10:18 PM CDT
Moon 4:51 AM CDT (8/5) 7:20 PM CDT (8/5)
Length of Visible Light 15h 29m
Length of Day
14h 25m
Waning Crescent, 1% of the Moon is Illuminated
Aug 5
Waning Crescent
Aug 6
New
Aug 14
First Quarter
Aug 20
Full
Aug 28
Last Quarter

Hourly Weather History & Observations

Time (CDT) Temp. Dew Point Humidity Pressure Visibility Wind Dir Wind Speed Gust Speed Precip Events Conditions
12:15 AM 50.9 °F 49.5 °F 95% 30.10 in 10.0 mi Calm Calm - N/A   Unknown
12:35 AM 50.7 °F 49.6 °F 96% 30.09 in 10.0 mi Calm Calm - N/A   Unknown
12:55 AM 50.5 °F 49.5 °F 96% 30.08 in 10.0 mi Calm Calm - N/A   Unknown
1:15 AM 50.0 °F 48.6 °F 95% 30.07 in 10.0 mi Calm Calm - N/A   Unknown
1:35 AM 49.6 °F 48.7 °F 97% 30.07 in 10.0 mi Calm Calm - N/A   Unknown
1:55 AM 49.3 °F 48.4 °F 97% 30.06 in 10.0 mi Calm Calm - N/A   Unknown
2:15 AM 49.5 °F 48.2 °F 95% 30.06 in 10.0 mi Calm Calm - N/A   Unknown
2:35 AM 49.3 °F 48.0 °F 95% 30.06 in 10.0 mi Calm Calm - N/A   Unknown
2:55 AM 49.1 °F 48.4 °F 97% 30.05 in 10.0 mi Calm Calm - N/A   Unknown
3:15 AM 50.0 °F 49.1 °F 97% 30.05 in 10.0 mi Calm Calm - N/A   Unknown
3:35 AM 50.5 °F 49.3 °F 95% 30.05 in 10.0 mi Calm Calm - N/A   Unknown
3:55 AM 51.3 °F 49.1 °F 92% 30.05 in 10.0 mi Calm Calm - N/A   Unknown
4:15 AM 51.6 °F 50.0 °F 94% 30.04 in 10.0 mi Calm Calm - N/A   Unknown
4:35 AM 51.8 °F 50.2 °F 94% 30.03 in 10.0 mi Calm Calm - N/A   Unknown
4:55 AM 53.1 °F 51.3 °F 94% 30.04 in 10.0 mi West 4.6 mph - N/A   Unknown
5:15 AM 53.8 °F 52.2 °F 94% 30.03 in 10.0 mi Calm Calm - N/A Rain Light Rain
5:35 AM 54.0 °F 52.7 °F 95% 30.05 in 10.0 mi WNW 3.5 mph - N/A Rain Light Rain
5:55 AM 54.3 °F 53.1 °F 95% 30.05 in 10.0 mi Calm Calm - N/A Rain Light Rain
6:15 AM 54.9 °F 53.8 °F 96% 30.05 in 7.0 mi Calm Calm - N/A Rain Rain
6:35 AM 55.6 °F 54.7 °F 97% 30.05 in 5.0 mi Calm Calm - 0.01 in Rain Rain
6:55 AM 55.4 °F 55.4 °F 100% 30.03 in 7.0 mi ESE 3.5 mph - 0.02 in Rain Rain
7:15 AM 57.2 °F 57.2 °F 100% 29.99 in 7.0 mi SE 6.9 mph - N/A Rain Light Rain
7:55 AM 60.8 °F 57.2 °F 88% 29.97 in 10.0 mi South 5.8 mph - N/A   Unknown
8:15 AM 61.7 °F 58.1 °F 88% 29.95 in 10.0 mi South 10.4 mph 18.4 mph N/A   Unknown
8:55 AM 62.6 °F 57.2 °F 82% 29.96 in 10.0 mi Calm Calm - N/A   Unknown
9:15 AM 62.6 °F 59.0 °F 88% 29.95 in 10.0 mi South 3.5 mph - N/A   Unknown
9:35 AM 63.7 °F 59.5 °F 86% 29.95 in 10.0 mi South 5.8 mph - N/A   Unknown
9:55 AM 65.1 °F 59.7 °F 83% 29.96 in 10.0 mi SSW 4.6 mph - N/A   Unknown
10:16 AM 64.4 °F 59.0 °F 83% 29.96 in 10.0 mi SSW 3.5 mph - N/A   Unknown
10:55 AM 64.4 °F 59.0 °F 83% 29.96 in 10.0 mi South 5.8 mph - N/A   Unknown
11:15 AM 64.9 °F 59.4 °F 82% 29.95 in 10.0 mi South 4.6 mph - N/A   Light Drizzle
11:16 AM 64.4 °F 59.0 °F 83% 29.95 in 10.0 mi SSE 4.6 mph - N/A   Light Drizzle
11:35 AM 65.8 °F 60.1 °F 82% 29.95 in 10.0 mi South 3.5 mph - N/A Rain Light Rain
11:55 AM 67.1 °F 60.3 °F 79% 29.94 in 10.0 mi South 5.8 mph - N/A   Unknown
12:35 PM 71.6 °F 60.8 °F 69% 29.92 in 10.0 mi South 9.2 mph - N/A   Unknown
12:55 PM 70.7 °F 60.8 °F 71% 29.92 in 10.0 mi SSW 4.6 mph - N/A   Unknown
1:15 PM 70.2 °F 60.8 °F 72% 29.91 in 10.0 mi SW 3.5 mph - N/A   Unknown
1:55 PM 70.0 °F 60.3 °F 71% 29.91 in 10.0 mi SSW 6.9 mph - N/A   Unknown
2:15 PM 70.7 °F 59.5 °F 68% 29.91 in 10.0 mi SW 5.8 mph - N/A   Unknown
2:54 PM 69.8 °F 59.0 °F 68% 29.90 in 10.0 mi SSW 10.4 mph - N/A   Unknown
3:14 PM 68.0 °F 60.8 °F 78% 29.90 in 10.0 mi SSW 5.8 mph - N/A   Unknown
3:34 PM 69.8 °F 60.8 °F 73% 29.89 in 10.0 mi SSW 5.8 mph - N/A   Unknown
3:55 PM 68.0 °F 59.9 °F 75% 29.89 in 10.0 mi South 4.6 mph - N/A   Unknown
4:15 PM 68.0 °F 60.8 °F 78% 29.88 in 10.0 mi South 4.6 mph - N/A   Unknown
4:34 PM 68.0 °F 60.8 °F 78% 29.88 in 10.0 mi South 4.6 mph - N/A   Unknown
4:54 PM 68.0 °F 60.8 °F 78% 29.87 in 10.0 mi South 4.6 mph - N/A   Unknown
5:14 PM 68.0 °F 60.8 °F 78% 29.87 in 10.0 mi South 4.6 mph - N/A   Unknown
5:35 PM 68.0 °F 61.2 °F 79% 29.87 in 10.0 mi SSW 4.6 mph - N/A   Unknown
5:55 PM 67.3 °F 61.3 °F 81% 29.87 in 10.0 mi SSW 4.6 mph - N/A   Unknown
6:34 PM 66.2 °F 62.6 °F 88% 29.87 in 7.0 mi Calm Calm - N/A   Unknown
6:54 PM 66.2 °F 62.6 °F 88% 29.87 in 4.0 mi Calm Calm - N/A   Mist
6:55 PM 65.8 °F 63.5 °F 92% 29.87 in 4.0 mi Calm Calm - N/A   Mist
7:14 PM 66.2 °F 64.4 °F 94% 29.87 in 2.5 mi Calm Calm - N/A   Mist
7:34 PM 64.4 °F 64.4 °F 100% 29.87 in 4.0 mi Calm Calm - N/A   Mist
7:54 PM 64.4 °F 64.4 °F 100% 29.87 in 4.0 mi Calm Calm - N/A   Mist
8:16 PM 66.2 °F 64.4 °F 94% 29.86 in 10.0 mi Calm Calm - N/A   Unknown
8:34 PM 64.4 °F 64.4 °F 100% 29.86 in 10.0 mi Calm Calm - N/A   Unknown
8:54 PM 66.2 °F 64.4 °F 94% 29.86 in 10.0 mi Calm Calm - N/A   Unknown
9:14 PM 66.2 °F 64.4 °F 94% 29.87 in 10.0 mi Calm Calm - N/A   Unknown
9:34 PM 66.2 °F 64.4 °F 94% 29.87 in 10.0 mi Calm Calm - N/A   Unknown
9:54 PM 66.2 °F 64.4 °F 94% 29.87 in 10.0 mi Calm Calm - N/A   Unknown
10:14 PM 66.2 °F 64.4 °F 94% 29.87 in 10.0 mi Calm Calm - N/A   Unknown
10:34 PM 64.4 °F 64.4 °F 100% 29.87 in 10.0 mi Calm Calm - N/A   Unknown
11:14 PM 64.4 °F 64.4 °F 100% 29.87 in 10.0 mi Calm Calm - N/A   Unknown
11:34 PM 64.4 °F 64.4 °F 100% 29.87 in 10.0 mi Calm Calm - N/A   Unknown
11:54 PM 64.4 °F 64.4 °F 100% 29.87 in 10.0 mi Calm Calm - N/A   Unknown